This is the latest recevied weather packets stored in our database for station/object SQ5AAG-2. If no packets are shown the sender has not sent any weather packets the latest 10 day(s).
| Time | Temp. | Humidity | Pressure | Rain* | Wind** | Luminosity | Snow |
|---|---|---|---|---|---|---|---|
| 1777361469 | 6.67° C | 47% | 1011.1 hPa | 0 mm | - | - | - |
| 1777361169 | 6.67° C | 48% | 1011.1 hPa | 0 mm | - | - | - |
| 1777360868 | 6.67° C | 49% | 1011.1 hPa | 0 mm | - | - | - |
| 1777360568 | 6.67° C | 50% | 1011.1 hPa | 0 mm | - | - | - |
| 1777360268 | 6.11° C | 51% | 1010.9 hPa | 0 mm | - | - | - |
| 1777359967 | 6.11° C | 52% | 1011.1 hPa | 0 mm | - | - | - |
| 1777359667 | 6.11° C | 52% | 1011.2 hPa | 0 mm | - | - | - |
| 1777359367 | 5.56° C | 53% | 1011.2 hPa | 0 mm | - | - | - |
| 1777359066 | 5.56° C | 53% | 1011.2 hPa | 0 mm | - | - | - |
| 1777358766 | 5.56° C | 54% | 1011 hPa | 0 mm | - | - | - |
| 1777358466 | 5.56° C | 54% | 1011 hPa | 0 mm | - | - | - |
| 1777358166 | 5.56° C | 55% | 1011 hPa | 0 mm | - | - | - |
| 1777357865 | 5° C | 55% | 1011.1 hPa | 0 mm | - | - | - |
| 1777357565 | 5.56° C | 56% | 1011.1 hPa | 0 mm | - | - | - |
| 1777357265 | 5.56° C | 55% | 1010.9 hPa | 0 mm | - | - | - |
| 1777356964 | 5.56° C | 55% | 1010.8 hPa | 0 mm | - | - | - |
| 1777356664 | 6.11° C | 54% | 1011.1 hPa | 0 mm | - | - | - |
| 1777356364 | 6.67° C | 53% | 1011 hPa | 0 mm | - | - | - |
| 1777356064 | 6.67° C | 57% | 1011.1 hPa | 0 mm | - | - | - |
| 1777355763 | 6.67° C | 58% | 1011.2 hPa | 0 mm | - | - | - |
| 1777355464 | 5.56° C | 58% | 1011 hPa | 0 mm | - | - | - |
| 1777355163 | 5.56° C | 59% | 1011 hPa | 0 mm | - | - | - |
| 1777354862 | 5° C | 60% | 1010.9 hPa | 0 mm | - | - | - |
| 1777354562 | 5° C | 61% | 1010.9 hPa | 0 mm | - | - | - |
| 1777354262 | 4.44° C | 62% | 1011 hPa | 0 mm | - | - | - |
* Rain latest hour (hover to see other rain measurements)
** Current wind speed in m/s (hover to see current wind gust speed)